Location: Newark
(44.3248°N, 23.7839°E)
Time: 05:53:21
(UTC+00:00)

CAS-6 - Pass Details

Date: 26 April 2024
Orbit: 607 x 628 km, 97.8° (Epoch: 24 May)

Event Time Altitude Azimuth Distance (km) Brightness Sun altitude
Exits shadow 20:40:38 57° 334° (NNW) 735 ? -27.3°
Drops below altitude 10° 20:44:06 10° 345° (NNW) 1,986 ? -27.6°
Sets 20:46:18 0° 347° (NNW) 2,892 ? -27.8°
